CW8078 Weather Reports


time (UTC)temp
C
wind
direction
speed
KPH
gust
KPH
rain 1hr
cm
rain 24hr
cm
rain mn
cm
humidity
%
barometer
mb
20260506230803 15 19 0.0 0.0 0.00 0.74 0.08 47 1014.8
20260506230303 15 172 0.0 3.2 0.00 0.74 0.08 44 1014.9
20260506224804 15 3 0.0 0.0 0.00 0.76 0.08 51 1014.8
20260506224303 15 271 0.0 1.6 0.00 0.76 0.08 46 1014.8
20260506223804 15 252 0.0 1.6 0.00 0.79 0.08 49 1014.8
20260506223303 15 23 0.0 4.8 0.00 0.79 0.08 41 1014.7
20260506221804 15 255 0.0 4.8 0.00 0.79 0.08 47 1014.9
20260506221303 15 264 0.0 1.6 0.00 0.81 0.08 45 1014.7
20260506220303 16 264 0.0 4.8 0.00 0.84 0.08 41 1014.8
20260506214803 16 250 0.0 3.2 0.00 0.91 0.08 42 1014.6
20260506214303 16 15 0.0 8.0 0.00 0.94 0.08 43 1014.6
20260506213803 16 332 0.0 4.8 0.00 0.97 0.08 40 1014.6
20260506213303 16 287 0.0 4.8 0.00 0.99 0.08 44 1014.6
20260506211804 16 263 1.6 16.1 0.00 1.09 0.08 39 1014.6
20260506211304 16 215 0.0 0.0 0.00 1.09 0.08 43 1014.6
20260506210803 16 3 0.0 3.2 0.00 1.09 0.08 46 1014.7
20260506210304 16 254 0.0 1.6 0.00 1.09 0.08 46 1014.6
20260506204803 16 214 0.0 4.8 0.00 1.14 0.08 44 1014.9
20260506203803 16 236 1.6 14.5 0.00 1.17 0.08 41 1014.9
20260506203303 16 299 0.0 9.7 0.00 1.17 0.08 45 1015.0
20260506201803 16 19 0.0 4.8 0.00 1.19 0.08 46 1015.3
20260506201304 16 275 0.0 4.8 0.00 1.22 0.08 44 1015.3
20260506194303 16 231 0.0 1.6 0.00 1.22 0.08 47 1015.7
20260506193803 16 242 0.0 3.2 0.00 1.24 0.08 56 1015.7
20260506193303 15 293 0.0 0.0 0.00 1.24 0.08 45 1015.8
20260506191803 16 301 0.0 4.8 0.00 1.27 0.08 47 1015.9
20260506190804 16 312 1.6 4.8 0.00 1.30 0.08 51 1015.9
20260506190303 16 208 0.0 4.8 0.00 1.30 0.08 50 1015.8
20260506184304 16 286 0.0 4.8 0.00 1.32 0.08 46 1016.0
20260506183803 16 252 0.0 4.8 0.00 1.35 0.08 50 1016.0
20260506181303 16 286 0.0 3.2 0.00 1.40 0.08 47 1016.1
20260506180803 16 319 0.0 4.8 0.00 1.40 0.08 46 1016.2
20260506180303 16 9 0.0 8.0 0.00 1.40 0.08 49 1016.1
20260506174803 15 352 0.0 4.8 0.00 1.40 0.08 44 1015.9
20260506174303 16 232 0.0 0.0 0.00 1.40 0.08 48 1016.0
20260506173803 16 14 0.0 0.0 0.00 1.40 0.08 52 1016.2
20260506173303 15 274 0.0 1.6 0.00 1.42 0.08 52 1016.3
20260506171803 15 295 0.0 0.0 0.00 1.42 0.08 47 1016.3
20260506171303 15 4 0.0 1.6 0.00 1.42 0.08 56 1016.2
20260506170803 15 256 0.0 4.8 0.00 1.45 0.08 59 1016.2
20260506170303 14 5 0.0 11.3 0.00 1.45 0.08 50 1016.2
20260506164804 14 306 0.0 3.2 0.00 1.50 0.08 53 1016.2
20260506164304 13 4 0.0 0.0 0.00 1.55 0.08 64 1016.1
20260506163303 13 327 0.0 1.6 0.00 1.57 0.08 67 1016.0
20260506161803 13 293 0.0 0.0 0.00 1.57 0.08 62 1016.0
20260506161303 13 356 0.0 1.6 0.00 1.57 0.08 69 1016.0
20260506160804 12 296 0.0 1.6 0.00 1.57 0.08 67 1016.0
20260506160303 12 60 0.0 8.0 0.00 1.57 0.08 67 1016.0
20260506154804 12 269 0.0 0.0 0.00 1.57 0.08 75 1016.0
20260506154304 12 290 0.0 0.0 0.00 1.57 0.08 76 1015.8
20260506153803 12 290 0.0 0.0 0.00 1.57 0.08 76 1015.8
20260506151303 11 290 0.0 0.0 0.00 1.57 0.08 79 1015.8
20260506150803 11 254 0.0 0.0 0.00 1.57 0.08 82 1015.8
20260506144804 10 192 0.0 1.6 0.00 1.57 0.08 86 1015.5
20260506144303 10 211 0.0 1.6 0.00 1.57 0.08 87 1015.5
20260506143302 10 275 0.0 0.0 0.00 1.57 0.08 88 1015.5
20260506141802 10 293 0.0 0.0 0.00 1.57 0.08 93 1015.0
20260506141302 10 293 0.0 0.0 0.00 1.57 0.08 94 1014.9
20260506140802 9 293 0.0 0.0 0.00 1.57 0.08 94 1014.8
20260506134302 8 293 0.0 0.0 0.00 1.57 0.08 94 1014.9
20260506133802 8 293 0.0 0.0 0.00 1.57 0.08 94 1015.0
20260506133302 8 293 0.0 0.0 0.00 1.57 0.08 94 1015.0
20260506131802 8 293 0.0 0.0 0.00 1.57 0.08 94 1014.9
20260506130802 8 293 0.0 0.0 0.00 1.57 0.08 93 1014.7
20260506130303 8 293 0.0 0.0 0.00 1.57 0.08 93 1014.9
20260506124803 7 293 0.0 0.0 0.00 1.57 0.08 93 1014.9
20260506124302 7 293 0.0 0.0 0.00 1.57 0.08 93 1015.1
20260506123803 7 293 0.0 0.0 0.00 1.57 0.08 93 1015.1
20260506123303 7 292 0.0 0.0 0.00 1.57 0.08 93 1014.9
20260506121802 7 285 0.0 0.0 0.00 1.57 0.08 93 1015.1
20260506121302 7 267 0.0 0.0 0.00 1.57 0.08 93 1015.1
20260506120803 7 248 0.0 0.0 0.00 1.57 0.08 94 1015.0
20260506120302 7 235 0.0 0.0 0.00 1.57 0.08 94 1014.6
20260506114302 7 180 0.0 0.0 0.03 1.57 0.08 94 1014.5
20260506113302 7 180 0.0 0.0 0.03 1.57 0.08 94 1013.9
20260506111302 7 180 0.0 0.0 0.03 1.60 0.08 94 1013.8
20260506110802 7 180 0.0 0.0 0.03 1.63 0.08 94 1013.7
20260506104802 7 180 0.0 0.0 0.00 1.68 0.05 94 1013.5
20260506104302 7 180 0.0 0.0 0.00 1.73 0.05 94 1013.1
20260506103802 7 180 0.0 0.0 0.00 1.78 0.05 94 1013.3
20260506103302 7 180 0.0 0.0 0.00 1.80 0.05 94 1013.0
20260506100802 7 180 0.0 0.0 0.00 2.01 0.05 94 1012.5
20260506100302 7 180 0.0 0.0 0.00 2.01 0.05 94 1012.3
20260506094303 7 180 0.0 0.0 0.00 2.08 0.05 94 1011.7
20260506093802 7 180 0.0 0.0 0.03 2.13 0.05 94 1011.6
20260506091803 7 180 0.0 0.0 0.03 2.18 0.05 94 1011.6
20260506091303 7 180 0.0 0.0 0.03 2.18 0.05 94 1011.6
20260506090802 7 180 0.0 0.0 0.03 2.18 0.05 94 1011.4
20260506090302 7 180 0.0 0.0 0.03 2.18 0.05 94 1011.6
20260506084802 7 180 0.0 0.0 0.03 2.18 0.05 94 1012.1
20260506084302 7 180 0.0 1.6 0.03 2.18 0.05 94 1012.0
20260506083302 7 180 0.0 0.0 0.00 2.18 0.03 94 1012.4
20260506081802 7 180 0.0 0.0 0.03 2.18 0.03 94 1012.4
20260506081302 7 180 0.0 0.0 0.03 2.18 0.03 94 1012.6
20260506080802 7 140 0.0 0.0 0.03 2.18 0.03 94 1012.7
20260506080302 7 111 0.0 0.0 0.03 2.21 0.03 94 1012.7
20260506073302 7 111 0.0 0.0 0.03 2.57 0.03 94 1012.4
20260506071802 7 111 0.0 0.0 0.00 2.57 0.00 94 1012.2
20260506071302 7 111 0.0 0.0 0.00 2.57 0.00 94 1012.4
20260506070302 7 111 0.0 0.0 0.00 2.57 0.00 94 1012.2
20260506061802 7 111 0.0 0.0 0.00 2.57 0.00 94 1012.2
20260506060802 7 10 0.0 0.0 0.00 2.57 0.00 94 1012.0
20260506060303 7 10 0.0 0.0 0.00 2.57 0.00 94 1012.1
20260506051302 7 10 0.0 0.0 0.00 2.57 0.00 94 1011.5
20260506050802 7 10 0.0 0.0 0.00 2.57 0.00 94 1011.4
20260506044802 7 10 0.0 0.0 0.00 2.57 2.57 94 1011.5
20260506044303 7 10 0.0 0.0 0.00 2.57 2.57 94 1011.7
20260506043803 7 10 0.0 0.0 0.00 2.57 2.57 94 1011.7
20260506043303 7 10 0.0 0.0 0.00 2.57 2.57 94 1011.6
20260506041803 7 10 0.0 0.0 0.00 2.57 2.57 94 1011.2
20260506040803 7 10 0.0 0.0 0.03 2.57 2.57 94 1011.4
20260506040302 7 10 0.0 0.0 0.03 2.57 2.57 94 1011.2
20260506034803 7 10 0.0 0.0 0.05 2.57 2.57 94 1011.7
20260506034303 7 10 0.0 0.0 0.05 2.57 2.57 94 1011.7
20260506033302 7 10 0.0 0.0 0.05 2.57 2.57 94 1011.2
20260506031803 7 10 0.0 0.0 0.08 2.57 2.57 94 1011.4
20260506031303 7 10 0.0 0.0 0.08 2.57 2.57 94 1011.4
20260506030803 7 10 0.0 0.0 0.05 2.54 2.54 94 1011.2
20260506024802 7 10 0.0 0.0 0.05 2.51 2.51 94 1011.3
20260506024303 7 10 0.0 0.0 0.05 2.51 2.51 94 1011.4
20260506023302 7 10 0.0 0.0 0.10 2.51 2.51 94 1011.0
20260506021303 7 10 0.0 0.0 0.18 2.49 2.49 93 1010.4
20260506020803 7 10 0.0 0.0 0.18 2.49 2.49 93 1010.2
20260506020302 7 10 0.0 0.0 0.20 2.49 2.49 93 1010.2
20260506014802 7 10 0.0 0.0 0.20 2.46 2.46 93 1010.1
20260506014302 7 10 0.0 0.0 0.20 2.46 2.46 93 1010.1
20260506013302 7 10 0.0 0.0 0.20 2.41 2.41 93 1010.1
20260506011803 7 10 0.0 0.0 0.15 2.34 2.34 93 1010.3
20260506011303 7 10 0.0 0.0 0.15 2.31 2.31 93 1010.1
20260506010803 7 10 0.0 0.0 0.15 2.31 2.31 93 1009.9
20260506010303 7 10 0.0 0.0 0.13 2.29 2.29 93 1010.0
20260506004803 7 10 0.0 0.0 0.18 2.26 2.26 93 1009.9
20260506004303 7 10 0.0 0.0 0.20 2.26 2.26 93 1009.7
20260506003803 7 10 0.0 0.0 0.20 2.24 2.24 93 1009.7
20260506003302 7 10 0.0 0.0 0.20 2.21 2.21 93 1009.5
20260506001802 7 10 0.0 0.0 0.23 2.18 2.18 93 1009.5
20260506001303 7 10 0.0 0.0 0.23 2.16 2.16 93 1009.2
20260506000302 7 10 0.0 0.0 0.25 2.16 2.16 93 1009.2
20260505234803 7 10 0.0 0.0 0.20 2.08 2.08 92 1009.7
20260505234303 7 10 0.0 0.0 0.18 2.06 2.06 93 1009.7
20260505233803 7 10 0.0 0.0 0.18 2.03 2.03 93 1009.7
20260505233303 7 10 0.0 0.0 0.15 2.01 2.01 93 1009.3
20260505231303 7 9 0.0 0.0 0.10 1.93 1.93 92 1009.4